User: anonymous   Login
Location: Newark
(49.3000°N, 9.4667°E)
Time: 18:47:29
(UTC+00:00)
Language:

A-11 Canister half - Orbit

View from above orbital plane
View from above orbital plane
View from above satellite
View from above satellite

Ground track
Ground track

The orbit data is extracted from the following two-line orbital elements,

1    51U 60009C   19142.05298275 -.00000119  00000-0 -32444-3 0  9999
2    51  47.2104 121.4041 0104293  75.4948 285.7384 12.18270687616243
Epoch (UTC): 22 May 2019 01:16:17
Eccentricity: 0.0104293
inclination: 47.2104°
perigee height: 1517 km
apogee height: 1683 km
right ascension of ascending node: 121.4041°
argument of perigee: 75.4948°
revolutions per day: 12.18270687
mean anomaly at epoch: 285.7384°
orbit number at epoch: 61624

The dashed part of the orbit path shows where the satellite is in the earth's shadow,  

DLR